Regional Weather Roundup
Issued by NWS Goodland, KS

Home | Current Version | Previous Version | Graphics & Text | Print | Product List | Glossary On
Versions: 1 2 3 4 5 6 7 8 9 10 11 12 13 14 15 16 17 18 19 20 21 22 23 24 25 26 27 28 29 30 31 32 33 34 35 36 37 38 39 40 41 42 43 44 45 46 47 48 49 50
000
ASUS43 KGLD 050808
RWRGLD

GOODLAND FORECAST AREA HOURLY WEATHER ROUNDUP
NATIONAL WEATHER SERVICE GOODLAND KS
100 AM MST MON DEC 05 2016

...OFFICIAL OBSERVATIONS...

CITY           SKY/WX    TMP DP  RH WIND       PRES   REMARKS
GOODLAND KS    CLOUDY    30  17  58 S13       29.67F WCI  20
HILL CITY KS   CLEAR     36  24  62 W6        29.78F
IMPERIAL NEB   CLOUDY    32  15  49 CALM      29.68F
MCCOOK NEB     CLOUDY    35  20  54 S6        29.71F
AKRON CO       CLOUDY    38  13  35 SW10      29.66F
BURLINGTON CO  CLOUDY    33  15  47 SW10      29.68F
LIMON CO       CLOUDY    16  11  80 N7        29.69F
$$

...UNOFFICIAL OBSERVATIONS...

CITY           SKY/WX    TMP DP  RH WIND       PRES   REMARKS
COLBY KS       CLEAR     34  23  64 S9        29.72F
LENORA KS        N/A     36  32  85 MISG        N/A
NORTON KS      CLEAR     36  19  51 S10G16    29.74F
SHARON SPRINGS   N/A     31  20  63 S16         N/A
TRENTON NEB      N/A     34  32  92 CALM        N/A
KIT CARSON CO    N/A     21  11  65 CALM        N/A
YUMA CO        FAIR      34  14  44 W8        29.64F
$$




USA.gov is the U.S. government's official web portal to all federal, state and local government web resources and services.